sat.trackr.live / text

‹ back to catalog

STARLINK-36987

NORAD 68321 · 2026-059A

PAYLOAD ACTIVE UNKNOWN

§ Identity

Operator
Country
US
Launch date
2026-03-22
Launch site
AFETR
Launch vehicle
Mass (kg)
RCS (m²)

Purposes: comms

External: N2YO · Heavens-Above · Gunter

§ Orbital elements

Epoch: 2026-05-24T19:22:46.448256Z

Period
94.10 min
Inclination
53.1571°
Eccentricity
0.0000693
Mean motion
15.30207725 rev/d
Perigee alt
474.7 km
Apogee alt
475.7 km
Semi-major
6,853.3 km
B*
6.3033e-4
RAAN
354.4155°
Arg perigee
93.0206°
Mean anomaly
267.0874°
Rev number
983

§ Raw data

STARLINK-369871 68321U 26059A   26144.80748204  .00018360  00000+0  63033-3 0  99972 68321  53.1571 354.4155 0000693  93.0206 267.0874 15.30207725  9835

JSON: /api/v1/satellites/68321 · /tle

For live sub-satellite position, see the globe view (requires WebGL).

§ Visibility from observer

Set your observer location to see the next 7 days of passes ≥ 10°. The values pass through the URL so the page stays shareable.

No JS? Fill the form by hand. The geolocation button needs JavaScript.